Regional Weather Roundup
Issued by NWS

Home | Current Version | Previous Version | Text Only | Print | Product List | Glossary On
Versions: 1 2 3 4 5 6 7 8 9 10 11 12 13 14 15 16 17 18 19 20 21 22 23 24 25 26 27 28
000
ASUS45 KBOI 231610
RWRID

IDAHO REGIONAL WEATHER ROUNDUP
NATIONAL WEATHER SERVICE BOISE ID
900 AM MST MON JAN 23 2017

NOTE: "FAIR" INDICATES FEW OR NO CLOUDS BELOW 12000 FEET
WITH NO SIGNIFICANT WEATHER AND/OR OBSTRUCTIONS TO VISIBILITY

IDZ012-014-231700-
SOUTHWEST IDAHO


CITY           SKY/WX    TMP DP  RH WIND       PRES   REMARKS
BOISE          LGT SNOW  27  26  96 NW6       29.60S VSB 1   WCI  20
CALDWELL       LGT SNOW  29  28  96 W6        29.64S FOG     WCI  23
MOUNTAIN HOME  LGT SNOW  30  30 100 NW14      29.57R VSB 1   WCI  19
$$

IDZ016-017-231700-
SOUTHCENTRAL IDAHO


CITY           SKY/WX    TMP DP  RH WIND       PRES   REMARKS
BURLEY         LGT SNOW  32  30  92 NE9       29.46R FOG     WCI  24
JEROME         LGT SNOW  31  30  96 NE24      29.48R FOG     WCI  17
TWIN FALLS     LGT SNOW  31  30  96 E5        29.48R FOG     WCI  26
$$

IDZ019>023-231700-
SOUTHEAST IDAHO


CITY           SKY/WX    TMP DP  RH WIND       PRES   REMARKS
IDAHO FALLS    CLOUDY    29  25  85 NE9       29.53F FOG     WCI  20
POCATELLO      LGT SNOW  31  30  96 NE9       29.49S VSB 3/4 WCI  23
REXBURG        CLOUDY    28  23  81 NE7       29.54S WCI  21
$$

IDZ006-010-011-018-031-032-231700-
CENTRAL IDAHO MOUNTAINS


CITY           SKY/WX    TMP DP  RH WIND       PRES   REMARKS
MCCALL         CLOUDY    12   8  84 CALM      29.55R
HAILEY         FLURRIES  27  23  86 NW9G17    29.49F WCI  17
STANLEY          N/A     14  13  95 CALM      29.54S
SALMON         CLOUDY   N/A N/A N/A CALM      29.67S VSB<1/4
CHALLIS        CLOUDY    16  15  96 E3        29.60R
$$

IDZ002-004-006-007-026-231700-
NORTHERN IDAHO


CITY           SKY/WX    TMP DP  RH WIND       PRES   REMARKS
LEWISTON       CLOUDY    30  29  96 CALM      29.74R FOG
LOWELL           N/A     32  30  92 CALM      29.75R
COEUR D`ALENE  FOG       30  30 100 NE3       29.72R VSB<1/4
MULLAN PASS    LGT SNOW  23  21  92 CALM      29.59R VSB 1
$$




USA.gov is the U.S. government's official web portal to all federal, state and local government web resources and services.